[[{"header":{"parameterUnit":"m.s-1","parameterCategory":2,"la1":30.2991,"la2":30.254,"lo1":-89.0895,"lo2":-89.0444,"dy":0.0017,"dx":0.0017,"nx":28,"ny":28,"refTime":"2025-06-01T21:00:00:Z","depth":"0","parameterNumber":2,"parameterNumberName":"U-component_of_CURRENTS"},"data":[0,0,0,0,0,0,0,0,0,0,0,0,0,0,0,0,0,0,0,0,0,0,0,0,0,0,0,0,0,0,0,0,0,0,0,0,0,0,0,0,0,0,0,0,0,0,0,0,0,0,0,0,0,0,0,0,0,0,-0.2248,-0.2249,0,-0.2221,-0.222,-0.2219,-0.2135,-0.2133,-0.2132,-0.2131,-0.2026,-0.2024,-0.2022,0,0,0,0,0,0,0,0,0,0,0,0,0,-0.2134,-0.2137,-0.2248,-0.2249,-0.2249,-0.2222,-0.222,-0.2219,-0.2135,-0.2133,-0.2132,-0.2131,-0.2026,-0.2024,-0.2022,0,0,0,0,0,0,0,0,0,0,0,0,0,-0.2146,-0.2138,-0.2248,-0.221,-0.2207,-0.2222,-0.222,-0.2219,-0.2135,-0.2133,-0.2132,-0.213,-0.2027,-0.2024,-0.2022,-0.2039,0,0,-0.2014,-0.2013,0,0,0,0,0,0,0,0,-0.2145,-0.2149,-0.2215,-0.2213,-0.2209,-0.2187,-0.2142,-0.2158,-0.2135,-0.2153,-0.2131,-0.2129,-0.2079,-0.2072,-0.206,-0.2034,-0.2029,-0.2013,-0.2012,-0.2011,-0.201,0,0,0,0,0,0,0,-0.2145,-0.2149,-0.2229,-0.2216,-0.2213,-0.2163,-0.2163,-0.2144,-0.2118,-0.2152,-0.2148,-0.2159,-0.2076,-0.2063,-0.2057,-0.2028,-0.2014,-0.2011,-0.201,-0.2008,-0.1999,-0.2001,0,0,0,0,0,0,-0.2172,-0.2149,-0.223,-0.2229,-0.2182,-0.2168,-0.2167,-0.2189,-0.212,-0.2111,-0.216,-0.2155,-0.2068,-0.206,-0.2053,-0.2063,-0.2011,-0.2008,-0.2007,-0.1998,-0.2,-0.2001,0,0,0,0,0,0,-0.217,-0.218,-0.2231,-0.2194,-0.2198,-0.2173,-0.2197,-0.219,-0.2177,-0.2129,-0.2116,-0.2157,-0.2066,-0.2056,-0.2039,-0.2059,-0.2007,-0.2005,-0.1996,-0.1999,-0.2,-0.2088,0,0,0,0,0,0,-0.2167,-0.218,-0.2194,-0.2197,-0.2202,-0.2251,-0.22,-0.219,-0.219,-0.2183,-0.2122,-0.211,-0.2064,-0.2044,-0.2036,-0.2054,-0.2003,-0.1995,-0.1997,-0.2,-0.2084,-0.2093,-0.2101,0,0,0,0,0,-0.2163,-0.2198,-0.2195,-0.2204,-0.2226,-0.2253,-0.225,-0.2219,-0.2192,-0.2197,-0.2153,-0.2112,-0.2054,-0.2043,-0.2034,-0.2051,-0.1993,-0.1997,-0.2,-0.208,-0.2091,-0.2101,0,0,0,0,0,0,-0.2141,-0.2194,-0.219,-0.2234,-0.2248,-0.2242,-0.2246,-0.2231,-0.2201,-0.2186,-0.2129,-0.2115,-0.2107,-0.2074,-0.2063,-0.2058,-0.2018,-0.202,-0.2082,-0.2092,-0.2101,-0.2104,-0.2,0,0,0,0,0,-0.2153,-0.2197,-0.2225,-0.2257,-0.227,-0.226,-0.2263,-0.225,-0.2234,-0.2218,-0.2178,-0.2138,-0.2116,-0.2099,-0.2072,-0.2073,-0.2064,-0.208,-0.2088,-0.2096,-0.2094,-0.2114,-0.2124,-0.2011,-0.2011,-0.2011,0,0,-0.2149,-0.2188,-0.2207,-0.2257,-0.2259,-0.2289,-0.2255,-0.2273,-0.2285,-0.2213,-0.2203,-0.2168,-0.2124,-0.2119,-0.2113,-0.2091,-0.2128,-0.21,-0.2106,-0.21,-0.2118,-0.2129,-0.2139,-0.2013,-0.2013,-0.2012,0,0,-0.2177,-0.2205,-0.2249,-0.2275,-0.2308,-0.2309,-0.2324,-0.2327,-0.2312,-0.2312,-0.2263,-0.225,-0.2205,-0.2185,-0.2168,-0.2215,-0.2175,-0.2199,-0.2242,-0.2262,-0.2272,-0.228,-0.2302,-0.2311,-0.2202,-0.2202,-0.2202,0,-0.2158,-0.2234,-0.2261,-0.2309,-0.2336,-0.2327,-0.2369,-0.2362,-0.2353,-0.2355,-0.2317,-0.2283,-0.2241,-0.2253,-0.2249,-0.2236,-0.2232,-0.2205,-0.2274,-0.2282,-0.2289,-0.2309,-0.2318,-0.2207,-0.2206,-0.2206,-0.2205,0,-0.2224,-0.2277,-0.2305,-0.237,-0.24,-0.2436,-0.2452,-0.2461,-0.2442,-0.2431,-0.2435,-0.2386,-0.2364,-0.2354,-0.2301,-0.2332,-0.2311,-0.2286,-0.2249,-0.2305,-0.2323,-0.2331,-0.2213,-0.2211,-0.221,-0.2209,0,0,-0.2174,-0.2324,-0.2326,-0.2369,-0.2439,-0.2462,-0.2508,-0.2542,-0.255,-0.2538,-0.2548,-0.2518,-0.2485,-0.2464,-0.2419,-0.2419,-0.2459,-0.236,-0.2359,-0.2385,-0.25,-0.256,-0.2574,-0.2438,-0.244,-0.2441,-0.2501,0,-0.22,-0.2313,-0.2387,-0.2462,-0.2508,-0.2549,-0.2588,-0.2614,-0.2609,-0.2606,-0.2589,-0.2568,-0.2531,-0.2503,-0.2511,-0.2444,-0.2479,-0.2444,-0.2438,-0.2439,-0.2487,-0.2585,-0.2442,-0.249,-0.2508,-0.251,-0.251,0,-0.2219,-0.2296,-0.2394,-0.2511,-0.2534,-0.2575,-0.2632,-0.2668,-0.2686,-0.2679,-0.2688,-0.2649,-0.2642,-0.2593,-0.2591,-0.2562,-0.2547,-0.2517,-0.2519,-0.2545,-0.2513,-0.2432,-0.2503,-0.2241,-0.2522,-0.2521,-0.252,0,-0.2147,-0.229,-0.2371,-0.2408,-0.2534,-0.2576,-0.2631,-0.2676,-0.2695,-0.2711,-0.2703,-0.2717,-0.2686,-0.2685,-0.2638,-0.2601,-0.2635,-0.2585,-0.2655,-0.2658,-0.2522,-0.2513,-0.2339,-0.2633,-0.2633,-0.2632,-0.2632,0,-0.2139,-0.219,-0.2338,-0.2368,-0.2431,-0.2537,-0.2589,-0.2634,-0.2686,-0.2704,-0.2721,-0.2728,-0.2699,-0.2709,-0.2678,-0.2708,-0.2693,-0.269,-0.2691,-0.2553,-0.2546,-0.2299,-0.2262,-0.2635,-0.2634,-0.2634,-0.2633,0,-0.2043,-0.2153,-0.2223,-0.2358,-0.2398,-0.2426,-0.2556,-0.2585,-0.2648,-0.267,-0.2673,-0.2718,-0.2754,-0.2765,-0.2758,-0.2762,-0.2702,-0.2804,-0.2655,-0.264,-0.2464,-0.2441,-0.2519,-0.2466,-0.288,-0.2882,-0.2884,0,-0.2013,-0.2045,-0.2168,-0.2197,-0.2258,-0.2338,-0.2395,-0.2522,-0.2564,-0.2668,-0.2666,-0.2732,-0.2786,-0.285,-0.2861,-0.2901,-0.2776,-0.2797,-0.2724,-0.2464,-0.2437,-0.2489,-0.244,-0.2568,-0.2567,-0.2566,-0.2565,0,-0.1924,-0.1961,-0.2016,-0.2073,-0.2134,-0.2221,-0.2323,-0.236,-0.2509,-0.2565,-0.2659,-0.2724,-0.2828,-0.2829,-0.2912,-0.2892,-0.2653,-0.2788,-0.2523,-0.2213,-0.2251,-0.2193,-0.2518,-0.2558,-0.2558,-0.2559,-0.2559,-0.256,-0.1825,-0.1831,-0.1897,-0.1938,-0.2005,-0.2086,-0.2116,-0.2262,-0.2354,-0.2441,-0.26,-0.2648,-0.2663,-0.2773,-0.2748,-0.2477,-0.2689,-0.2338,-0.2345,-0.243,-0.2348,-0.2701,-0.275,-0.2752,-0.2753,-0.2755,-0.2756,0,-0.1711,-0.1746,-0.1771,-0.1823,-0.1836,-0.1927,-0.2043,-0.207,-0.2162,-0.2299,-0.2424,-0.2356,-0.236,-0.2259,-0.208,-0.1971,-0.1943,-0.1873,-0.1769,-0.1751,-0.1994,-0.1933,-0.1799,-0.1799,-0.18,-0.18,-0.18,-0.1801,-0.1656,-0.1653,-0.1672,-0.1641,-0.1668,-0.167,-0.1709,-0.1785,-0.1864,-0.1866,-0.1816,-0.1855,-0.1635,-0.1618,-0.136,-0.1346,-0.1217,-0.1361,-0.137,-0.1306,-0.1342,-0.1377,-0.1295,-0.103,-0.103,-0.1017,-0.1016,-0.1016]},{"header":{"parameterUnit":"m.s-1","parameterCategory":2,"la1":30.2991,"la2":30.254,"lo1":-89.0895,"lo2":-89.0444,"dy":0.0017,"dx":0.0017,"nx":28,"ny":28,"refTime":"2025-06-01T21:00:00:Z","depth":"0","parameterNumber":3,"parameterNumberName":"V-component_of_CURRENTS"},"data":[0,0,0,0,0,0,0,0,0,0,0,0,0,0,0,0,0,0,0,0,0,0,0,0,0,0,0,0,0,0,0,0,0,0,0,0,0,0,0,0,0,0,0,0,0,0,0,0,0,0,0,0,0,0,0,0,0,0,-0.0357,-0.0356,0,-0.0324,-0.0324,-0.0324,-0.032,-0.032,-0.0321,-0.0321,-0.0296,-0.0295,-0.0294,0,0,0,0,0,0,0,0,0,0,0,0,0,-0.0343,-0.0344,-0.0357,-0.0356,-0.0356,-0.0324,-0.0324,-0.0324,-0.032,-0.032,-0.0321,-0.0321,-0.0296,-0.0295,-0.0294,0,0,0,0,0,0,0,0,0,0,0,0,0,-0.0336,-0.0345,-0.0357,-0.0349,-0.0348,-0.0324,-0.0324,-0.0324,-0.032,-0.032,-0.0321,-0.0321,-0.0297,-0.0295,-0.0294,-0.0282,0,0,-0.029,-0.029,0,0,0,0,0,0,0,0,-0.0336,-0.0337,-0.0351,-0.0349,-0.0348,-0.0325,-0.031,-0.0309,-0.032,-0.0333,-0.0321,-0.0321,-0.0305,-0.0303,-0.0299,-0.0281,-0.028,-0.029,-0.029,-0.0289,-0.0289,0,0,0,0,0,0,0,-0.0337,-0.0337,-0.0346,-0.035,-0.0348,-0.0322,-0.0322,-0.031,-0.0319,-0.0331,-0.0331,-0.0324,-0.0305,-0.03,-0.0298,-0.0279,-0.029,-0.0289,-0.0289,-0.0288,-0.0229,-0.0228,0,0,0,0,0,0,-0.0341,-0.0338,-0.0347,-0.0345,-0.034,-0.0322,-0.0322,-0.0334,-0.0319,-0.0317,-0.0324,-0.0324,-0.0302,-0.03,-0.0297,-0.0283,-0.0289,-0.0288,-0.0287,-0.023,-0.0229,-0.0228,0,0,0,0,0,0,-0.0341,-0.0343,-0.0348,-0.0338,-0.0337,-0.0322,-0.0335,-0.0333,-0.0328,-0.0313,-0.0311,-0.0321,-0.0302,-0.0299,-0.0282,-0.0282,-0.0287,-0.0286,-0.0231,-0.023,-0.0228,-0.0254,0,0,0,0,0,0,-0.0341,-0.0344,-0.0352,-0.0339,-0.0337,-0.0337,-0.0334,-0.0332,-0.0323,-0.0323,-0.031,-0.0308,-0.0302,-0.0284,-0.0281,-0.0281,-0.0285,-0.0232,-0.023,-0.0229,-0.0254,-0.0254,-0.0253,0,0,0,0,0,-0.0341,-0.0362,-0.0353,-0.0354,-0.0351,-0.0336,-0.0333,-0.0324,-0.0322,-0.0321,-0.0308,-0.0309,-0.0272,-0.0283,-0.0279,-0.0278,-0.0233,-0.0231,-0.0229,-0.0254,-0.0254,-0.0253,0,0,0,0,0,0,-0.0358,-0.0362,-0.0353,-0.0373,-0.0352,-0.0335,-0.0336,-0.0323,-0.0312,-0.0314,-0.03,-0.0297,-0.0282,-0.027,-0.0282,-0.0253,-0.0251,-0.0248,-0.0271,-0.0271,-0.027,-0.0299,-0.0284,0,0,0,0,0,-0.0364,-0.0384,-0.0366,-0.0378,-0.0373,-0.0351,-0.0344,-0.0334,-0.032,-0.0316,-0.0302,-0.0285,-0.027,-0.0264,-0.0248,-0.0234,-0.0274,-0.0228,-0.0228,-0.0228,-0.0247,-0.0286,-0.0292,-0.0222,-0.0222,-0.0222,0,0,-0.0372,-0.0376,-0.0386,-0.0381,-0.037,-0.0369,-0.0349,-0.0341,-0.0336,-0.0314,-0.0307,-0.0285,-0.0265,-0.025,-0.0242,-0.0242,-0.0274,-0.0225,-0.0226,-0.0245,-0.0285,-0.0292,-0.0299,-0.022,-0.0221,-0.0221,0,0,-0.0404,-0.0401,-0.043,-0.0415,-0.0398,-0.0381,-0.0379,-0.0356,-0.0345,-0.0324,-0.0309,-0.0289,-0.026,-0.0251,-0.0242,-0.0228,-0.0269,-0.0213,-0.024,-0.0277,-0.0284,-0.0291,-0.0386,-0.0401,-0.0214,-0.0215,-0.0215,0,-0.0408,-0.0447,-0.0429,-0.0443,-0.0443,-0.039,-0.0411,-0.0381,-0.0351,-0.0359,-0.0325,-0.0305,-0.0265,-0.0277,-0.0251,-0.0231,-0.028,-0.0247,-0.0281,-0.0288,-0.0295,-0.039,-0.0406,-0.0216,-0.0215,-0.0215,-0.0215,0,-0.0461,-0.0481,-0.0493,-0.05,-0.0492,-0.0495,-0.0457,-0.0443,-0.0414,-0.0395,-0.0391,-0.0337,-0.0336,-0.0301,-0.0261,-0.0285,-0.0317,-0.0279,-0.0293,-0.0305,-0.0403,-0.042,-0.0217,-0.0217,-0.0216,-0.0216,0,0,-0.0496,-0.053,-0.0532,-0.0561,-0.0528,-0.0539,-0.0522,-0.052,-0.0551,-0.0479,-0.0531,-0.0436,-0.0414,-0.04,-0.0355,-0.0356,-0.0419,-0.0329,-0.033,-0.0445,-0.056,-0.0534,-0.055,-0.0392,-0.0394,-0.0396,-0.0624,0,-0.0541,-0.0607,-0.0603,-0.0649,-0.0678,-0.0639,-0.0648,-0.0632,-0.0607,-0.0632,-0.0565,-0.0579,-0.045,-0.0462,-0.0433,-0.0424,-0.0458,-0.0364,-0.0513,-0.0519,-0.0511,-0.0565,-0.0399,-0.0582,-0.0641,-0.0643,-0.0645,0,-0.0598,-0.0637,-0.0705,-0.0766,-0.0779,-0.079,-0.0832,-0.0831,-0.0825,-0.0818,-0.0796,-0.0754,-0.0727,-0.0623,-0.0628,-0.0578,-0.0572,-0.0562,-0.057,-0.0549,-0.0522,-0.057,-0.061,-0.0271,-0.0671,-0.0669,-0.0667,0,-0.0658,-0.0716,-0.0787,-0.0794,-0.0835,-0.0869,-0.0887,-0.0892,-0.0939,-0.0943,-0.1,-0.0941,-0.0962,-0.0902,-0.0824,-0.0743,-0.0878,-0.0773,-0.0771,-0.0773,-0.0662,-0.0649,-0.0405,-0.0823,-0.0823,-0.0822,-0.0821,0,-0.0717,-0.0771,-0.0824,-0.0855,-0.0956,-0.0951,-0.1058,-0.1058,-0.1115,-0.121,-0.1103,-0.1186,-0.1029,-0.1059,-0.0948,-0.0933,-0.0986,-0.0813,-0.0826,-0.0667,-0.0652,-0.0375,-0.0253,-0.0831,-0.0829,-0.0827,-0.0826,0,-0.0767,-0.0799,-0.088,-0.0948,-0.0985,-0.1047,-0.117,-0.1257,-0.1282,-0.1411,-0.1429,-0.1418,-0.1433,-0.1329,-0.1294,-0.1138,-0.0954,-0.1102,-0.0951,-0.0939,-0.0524,-0.0414,-0.0423,-0.0318,-0.1106,-0.1106,-0.1107,0,-0.08,-0.0848,-0.0949,-0.1016,-0.1049,-0.1157,-0.1257,-0.1323,-0.1426,-0.1563,-0.1651,-0.1705,-0.175,-0.1699,-0.1435,-0.1311,-0.1071,-0.1075,-0.084,-0.0504,-0.0392,-0.0379,-0.0286,-0.0735,-0.0732,-0.073,-0.0729,0,-0.0853,-0.0885,-0.095,-0.1081,-0.1191,-0.1351,-0.149,-0.1605,-0.171,-0.1826,-0.1992,-0.2046,-0.1949,-0.1708,-0.1498,-0.1336,-0.0801,-0.1027,-0.0694,-0.0103,-0.0063,0.0034,-0.0628,-0.071,-0.0712,-0.0713,-0.0714,-0.0715,-0.0881,-0.0939,-0.1026,-0.1147,-0.1301,-0.1512,-0.1638,-0.1813,-0.2,-0.2161,-0.221,-0.217,-0.1762,-0.141,-0.1268,-0.0598,-0.074,-0.0291,-0.0211,-0.025,-0.0037,-0.0693,-0.0758,-0.076,-0.0762,-0.0763,-0.0765,0,-0.0912,-0.0989,-0.1101,-0.1266,-0.1442,-0.1514,-0.1778,-0.1906,-0.2124,-0.2187,-0.2302,-0.1716,-0.1332,-0.0831,-0.0051,0.0272,0.032,0.0462,0.063,0.0667,0.0111,0.026,0.0435,0.0435,0.0435,0.0434,0.0434,0.0434,-0.0932,-0.1036,-0.109,-0.1339,-0.1474,-0.1705,-0.1848,-0.2041,-0.2093,-0.198,-0.1618,-0.1354,-0.0406,0.0435,0.1158,0.1201,0.1445,0.1338,0.1385,0.1209,0.1151,0.1095,0.1276,0.1661,0.1662,0.1991,0.1995,0.1999]}],[{"header":{"parameterUnit":"m.s-1","parameterCategory":2,"la1":30.2991,"la2":30.254,"lo1":-89.0895,"lo2":-89.0444,"dy":0.0017,"dx":0.0017,"nx":28,"ny":28,"refTime":"2025-06-01T21:00:00:Z","depth":"2","parameterNumber":2,"parameterNumberName":"U-component_of_CURRENTS"},"data":[0,0,0,0,0,0,0,0,0,0,0,0,0,0,0,0,0,0,0,0,0,0,0,0,0,0,0,0,0,0,0,0,0,0,0,0,0,0,0,0,0,0,0,0,0,0,0,0,0,0,0,0,0,0,0,0,0,0,-0.1719,-0.172,0,-0.1793,-0.1794,-0.1796,-0.1803,-0.1802,-0.1801,-0.1799,-0.2007,-0.2014,-0.2021,0,0,0,0,0,0,0,0,0,0,0,0,0,-0.1668,-0.1669,-0.1719,-0.172,-0.172,-0.1793,-0.1795,-0.1796,-0.1804,-0.1802,-0.18,-0.1799,-0.2005,-0.2013,-0.2021,0,0,0,0,0,0,0,0,0,0,0,0,0,-0.1717,-0.1669,-0.1719,-0.1728,-0.1729,-0.1793,-0.1795,-0.1797,-0.1804,-0.1802,-0.18,-0.1798,-0.2003,-0.2012,-0.2023,-0.2126,0,0,-0.2054,-0.2058,0,0,0,0,0,0,0,0,-0.1714,-0.172,-0.1726,-0.1727,-0.1728,-0.1781,-0.1852,-0.1911,-0.1805,-0.1782,-0.1799,-0.1797,-0.1942,-0.1957,-0.1982,-0.2136,-0.2145,-0.2055,-0.2061,-0.2065,-0.2068,0,0,0,0,0,0,0,-0.1711,-0.1717,-0.1755,-0.1726,-0.1728,-0.1756,-0.1761,-0.1864,-0.188,-0.1784,-0.1783,-0.1782,-0.1944,-0.1972,-0.1988,-0.2148,-0.2054,-0.2063,-0.207,-0.2074,-0.2334,-0.2335,0,0,0,0,0,0,-0.1687,-0.1714,-0.1753,-0.1757,-0.1709,-0.1758,-0.1763,-0.1772,-0.1876,-0.1887,-0.1783,-0.1782,-0.1956,-0.1976,-0.1995,-0.2112,-0.2065,-0.2075,-0.208,-0.2334,-0.2335,-0.2336,0,0,0,0,0,0,-0.1686,-0.169,-0.1749,-0.1731,-0.1739,-0.1759,-0.177,-0.1774,-0.1796,-0.1873,-0.1887,-0.1798,-0.1955,-0.1981,-0.2123,-0.212,-0.2079,-0.2088,-0.2333,-0.2334,-0.2335,-0.2354,0,0,0,0,0,0,-0.1684,-0.169,-0.1695,-0.173,-0.1739,-0.1782,-0.1771,-0.1777,-0.1795,-0.1794,-0.1892,-0.1908,-0.1956,-0.2108,-0.2133,-0.2134,-0.2096,-0.2332,-0.2333,-0.2335,-0.2353,-0.2356,-0.2359,0,0,0,0,0,-0.1682,-0.1703,-0.1695,-0.1699,-0.1744,-0.1782,-0.1791,-0.1803,-0.1798,-0.1815,-0.191,-0.1905,-0.2131,-0.2121,-0.2149,-0.2152,-0.2331,-0.2333,-0.2335,-0.2351,-0.2355,-0.2359,0,0,0,0,0,0,-0.1685,-0.1706,-0.1698,-0.1723,-0.1741,-0.178,-0.1806,-0.1807,-0.1893,-0.1905,-0.1972,-0.2,-0.2106,-0.2139,-0.2123,-0.2224,-0.2208,-0.2216,-0.221,-0.2215,-0.2218,-0.2133,-0.2105,0,0,0,0,0,-0.1685,-0.1706,-0.1722,-0.1741,-0.1757,-0.1782,-0.18,-0.1805,-0.1874,-0.1905,-0.1979,-0.2056,-0.2138,-0.2186,-0.2266,-0.2363,-0.2325,-0.2362,-0.2365,-0.2368,-0.2315,-0.228,-0.2273,-0.2342,-0.2342,-0.2342,0,0,-0.1688,-0.1704,-0.1712,-0.1743,-0.1769,-0.1786,-0.1791,-0.1824,-0.183,-0.1924,-0.2002,-0.2092,-0.217,-0.2266,-0.2309,-0.2295,-0.2338,-0.237,-0.2372,-0.2317,-0.2281,-0.2273,-0.2267,-0.2343,-0.2343,-0.2342,0,0,-0.1704,-0.1726,-0.1742,-0.1764,-0.1791,-0.1804,-0.1808,-0.1857,-0.1873,-0.1967,-0.2023,-0.2116,-0.2249,-0.2295,-0.2334,-0.2403,-0.2363,-0.2417,-0.2367,-0.2336,-0.2328,-0.2321,-0.2298,-0.2289,-0.2409,-0.2409,-0.2409,0,-0.1702,-0.1723,-0.1754,-0.1776,-0.1787,-0.1806,-0.1818,-0.1844,-0.1929,-0.1962,-0.1984,-0.2158,-0.2242,-0.232,-0.2339,-0.2405,-0.2378,-0.2356,-0.2336,-0.2328,-0.232,-0.2298,-0.2287,-0.2411,-0.241,-0.241,-0.241,0,-0.1724,-0.1741,-0.1765,-0.1786,-0.1804,-0.183,-0.1848,-0.1892,-0.1921,-0.1943,-0.2036,-0.2152,-0.2237,-0.2277,-0.234,-0.2336,-0.2334,-0.2352,-0.2319,-0.2314,-0.2292,-0.228,-0.2412,-0.2412,-0.2411,-0.2411,0,0,-0.1705,-0.1765,-0.1766,-0.1782,-0.1811,-0.1832,-0.1858,-0.1889,-0.1913,-0.1975,-0.2004,-0.2133,-0.2172,-0.2214,-0.2291,-0.2263,-0.223,-0.2276,-0.2274,-0.2237,-0.2152,-0.217,-0.2159,-0.2242,-0.2239,-0.2237,-0.217,0,-0.1704,-0.1744,-0.1765,-0.179,-0.1813,-0.1846,-0.1869,-0.19,-0.1939,-0.1986,-0.2036,-0.2108,-0.2148,-0.221,-0.2184,-0.2238,-0.2193,-0.2245,-0.2172,-0.2169,-0.2172,-0.2144,-0.1921,-0.1842,-0.2159,-0.2157,-0.2155,0,-0.1696,-0.1731,-0.1752,-0.1806,-0.1819,-0.183,-0.188,-0.1902,-0.1953,-0.1991,-0.2027,-0.2073,-0.2091,-0.2108,-0.2087,-0.2118,-0.2109,-0.2113,-0.2112,-0.2093,-0.2163,-0.1892,-0.1809,-0.2135,-0.2137,-0.2138,-0.214,0,-0.1656,-0.1713,-0.173,-0.1748,-0.1808,-0.1831,-0.1859,-0.1909,-0.1928,-0.198,-0.2004,-0.2024,-0.2053,-0.2011,-0.2052,-0.2056,-0.2001,-0.2021,-0.2008,-0.2011,-0.1782,-0.1769,-0.1934,-0.1934,-0.1934,-0.1935,-0.1935,0,-0.1634,-0.1654,-0.1722,-0.1735,-0.1765,-0.1814,-0.1838,-0.1888,-0.1927,-0.1939,-0.1992,-0.2005,-0.2019,-0.2018,-0.2012,-0.1985,-0.197,-0.1959,-0.1977,-0.1792,-0.1781,-0.2,-0.2008,-0.1932,-0.1933,-0.1933,-0.1934,0,-0.1579,-0.1623,-0.1656,-0.1726,-0.1741,-0.1763,-0.1807,-0.1819,-0.1884,-0.1895,-0.1904,-0.197,-0.2003,-0.2024,-0.2003,-0.1956,-0.1929,-0.192,-0.1719,-0.1713,-0.1957,-0.1968,-0.185,-0.185,-0.1849,-0.1849,-0.1849,0,-0.1557,-0.1562,-0.1626,-0.1633,-0.1661,-0.1698,-0.17,-0.1774,-0.177,-0.1871,-0.1849,-0.1933,-0.2002,-0.2002,-0.1886,-0.1845,-0.1965,-0.1644,-0.1604,-0.191,-0.194,-0.1951,-0.1962,-0.1315,-0.131,-0.1306,-0.1303,0,-0.15,-0.1517,-0.1541,-0.156,-0.1567,-0.1577,-0.1591,-0.1595,-0.1672,-0.1754,-0.187,-0.1963,-0.1932,-0.1807,-0.1743,-0.1684,-0.1635,-0.1571,-0.189,-0.141,-0.141,-0.144,-0.1466,-0.127,-0.1274,-0.1276,-0.1278,-0.1279,-0.1443,-0.1443,-0.1461,-0.1473,-0.1474,-0.1455,-0.144,-0.1498,-0.1565,-0.1645,-0.1797,-0.1835,-0.1744,-0.1534,-0.1463,-0.1333,-0.145,-0.1362,-0.1369,-0.1382,-0.1371,-0.1374,-0.1225,-0.1227,-0.123,-0.1232,-0.1234,0,-0.137,-0.137,-0.1368,-0.1376,-0.1338,-0.137,-0.1349,-0.1319,-0.1411,-0.1493,-0.1653,-0.1448,-0.1342,-0.127,-0.0965,-0.0929,-0.0869,-0.0951,-0.0847,-0.0879,-0.0907,-0.087,-0.0592,-0.0591,-0.059,-0.0589,0,0,-0.133,-0.13,-0.1302,-0.1234,-0.123,-0.1156,-0.1132,-0.1145,-0.1143,-0.1219,-0.1201,-0.1287,-0.1194,-0.0872,-0.0812,-0.0664,-0.078,-0.0631,-0.1131,-0.1039,-0.1067,-0.1114,-0.1091,0,0,0,0,0]},{"header":{"parameterUnit":"m.s-1","parameterCategory":2,"la1":30.2991,"la2":30.254,"lo1":-89.0895,"lo2":-89.0444,"dy":0.0017,"dx":0.0017,"nx":28,"ny":28,"refTime":"2025-06-01T21:00:00:Z","depth":"2","parameterNumber":3,"parameterNumberName":"V-component_of_CURRENTS"},"data":[0,0,0,0,0,0,0,0,0,0,0,0,0,0,0,0,0,0,0,0,0,0,0,0,0,0,0,0,0,0,0,0,0,0,0,0,0,0,0,0,0,0,0,0,0,0,0,0,0,0,0,0,0,0,0,0,0,0,-0.0021,-0.0021,0,0.0031,0.0032,0.0033,0.0096,0.0096,0.0097,0.0098,0.0415,0.0422,0.043,0,0,0,0,0,0,0,0,0,0,0,0,0,-0.0065,-0.0065,-0.0021,-0.0021,-0.002,0.0031,0.0032,0.0033,0.0095,0.0096,0.0097,0.0098,0.0412,0.0421,0.043,0,0,0,0,0,0,0,0,0,0,0,0,0,-0.0031,-0.0064,-0.0021,0.0016,0.002,0.0031,0.0032,0.0033,0.0095,0.0096,0.0098,0.0099,0.0409,0.042,0.0432,0.0478,0,0,0.0467,0.0472,0,0,0,0,0,0,0,0,-0.0033,-0.003,0.001,0.0014,0.0018,0.0057,0.0132,0.0195,0.0095,0.0068,0.0098,0.0099,0.0318,0.0336,0.0342,0.0493,0.0506,0.0468,0.0475,0.048,0.0483,0,0,0,0,0,0,0,-0.0036,-0.0031,0.0001,0.001,0.0015,0.0031,0.0037,0.0143,0.0192,0.0071,0.0075,0.0078,0.0322,0.0331,0.0351,0.0511,0.0467,0.0478,0.0485,0.0489,0.0733,0.0733,0,0,0,0,0,0,-0.0047,-0.0034,-0.0,0.0003,-0.0007,0.003,0.0037,0.0044,0.0185,0.0205,0.0077,0.008,0.031,0.0337,0.0363,0.0484,0.0479,0.049,0.0497,0.0734,0.0733,0.0733,0,0,0,0,0,0,-0.0048,-0.0044,-0.0002,-0.0016,-0.001,0.0029,0.0037,0.0045,0.0058,0.0186,0.0212,0.0083,0.0312,0.0347,0.0491,0.0495,0.0495,0.0506,0.0734,0.0733,0.0733,0.0692,0,0,0,0,0,0,-0.005,-0.0045,-0.0048,-0.0017,-0.0009,-0.0003,0.0036,0.0045,0.0057,0.0063,0.02,0.023,0.0316,0.0473,0.0502,0.0511,0.0515,0.0735,0.0734,0.0733,0.0694,0.069,0.0687,0,0,0,0,0,-0.0051,-0.0063,-0.0048,-0.0044,-0.0013,-0.0005,0.0,0.0034,0.0056,0.0053,0.0177,0.0226,0.0486,0.0485,0.0518,0.053,0.0735,0.0734,0.0733,0.0695,0.0691,0.0687,0,0,0,0,0,0,-0.0085,-0.0057,-0.004,-0.0042,-0.0028,0.0005,0.0004,0.0027,0.0111,0.0135,0.0259,0.0299,0.0417,0.0474,0.0468,0.0589,0.0603,0.0608,0.0562,0.0559,0.0555,0.049,0.0524,0,0,0,0,0,-0.0095,-0.0096,-0.0067,-0.0072,-0.0064,-0.0031,-0.0024,-0.0001,0.0073,0.0107,0.0204,0.0314,0.0433,0.0499,0.0598,0.0688,0.07,0.07,0.0697,0.0693,0.0658,0.0673,0.0668,0.073,0.073,0.073,0,0,-0.0112,-0.0097,-0.0097,-0.0079,-0.0062,-0.0062,-0.0023,-0.0016,-0.0014,0.0137,0.0194,0.032,0.0455,0.0557,0.0609,0.0613,0.0689,0.0692,0.0689,0.0655,0.0672,0.0666,0.066,0.0729,0.0729,0.0729,0,0,-0.0149,-0.0129,-0.0141,-0.013,-0.0111,-0.0091,-0.0092,-0.0055,-0.0034,0.0037,0.0158,0.0293,0.0426,0.0543,0.0619,0.0651,0.0674,0.0659,0.0597,0.0614,0.0608,0.0603,0.064,0.0639,0.0652,0.0652,0.0652,0,-0.0171,-0.0176,-0.0147,-0.0153,-0.0146,-0.0107,-0.0116,-0.0099,-0.002,0.001,0.0042,0.0264,0.0415,0.0552,0.058,0.0647,0.0644,0.0614,0.0608,0.0603,0.0599,0.0638,0.0637,0.065,0.065,0.065,0.065,0,-0.0214,-0.0216,-0.0223,-0.0214,-0.0204,-0.0209,-0.0176,-0.0161,-0.0126,-0.0092,0.0018,0.0202,0.0332,0.0403,0.0524,0.0578,0.0585,0.0608,0.0616,0.059,0.0634,0.0633,0.0647,0.0648,0.0648,0.0649,0,0,-0.0263,-0.0256,-0.0258,-0.0261,-0.0233,-0.0234,-0.0226,-0.0203,-0.0189,-0.013,-0.0097,0.0122,0.0199,0.0287,0.0439,0.0477,0.0519,0.052,0.0522,0.0551,0.0541,0.0619,0.0627,0.0517,0.0516,0.0515,0.0594,0,-0.0305,-0.0337,-0.0312,-0.0335,-0.0344,-0.03,-0.0295,-0.0264,-0.022,-0.018,-0.005,0.0056,0.0153,0.0255,0.0297,0.0485,0.0508,0.0494,0.0564,0.0567,0.0634,0.0626,0.0574,0.0644,0.0594,0.0594,0.0594,0,-0.0349,-0.0365,-0.0395,-0.0389,-0.0386,-0.0392,-0.0362,-0.035,-0.0285,-0.0243,-0.0168,-0.0067,0.0073,0.0131,0.03,0.0272,0.0383,0.0483,0.0489,0.0562,0.0642,0.0656,0.0646,0.0594,0.0594,0.0594,0.0594,0,-0.0401,-0.0418,-0.0446,-0.0445,-0.0434,-0.0435,-0.0424,-0.0369,-0.0348,-0.0278,-0.024,-0.0133,-0.0031,0.0057,0.0282,0.0281,0.0427,0.0465,0.0614,0.0623,0.0594,0.0601,0.0515,0.0515,0.0515,0.0515,0.0514,0,-0.045,-0.0473,-0.0479,-0.0496,-0.0525,-0.0488,-0.049,-0.0463,-0.0401,-0.0376,-0.0275,-0.0218,-0.0058,0.0061,0.0219,0.042,0.0371,0.0589,0.0638,0.0584,0.0589,0.0549,0.0552,0.0518,0.0517,0.0517,0.0516,0,-0.0498,-0.0503,-0.054,-0.0547,-0.0552,-0.0572,-0.0547,-0.0533,-0.0474,-0.0437,-0.0414,-0.0278,-0.0125,0.004,0.0245,0.038,0.0557,0.0632,0.0575,0.0616,0.0752,0.0752,0.0795,0.0798,0.0801,0.0803,0.0805,0,-0.0526,-0.0549,-0.0585,-0.0613,-0.0621,-0.0638,-0.0635,-0.0581,-0.0543,-0.0467,-0.0433,-0.0298,-0.0162,0.0159,0.0381,0.0623,0.0618,0.0736,0.0745,0.0732,0.0776,0.0771,0.0768,0.0702,0.0703,0.0703,0.0704,0,-0.0572,-0.0583,-0.061,-0.0673,-0.0693,-0.0704,-0.0687,-0.0659,-0.0589,-0.0561,-0.0481,-0.0377,-0.0077,0.0196,0.0529,0.0657,0.0693,0.0764,0.0739,0.0651,0.0654,0.0694,0.0691,0.071,0.071,0.0709,0.0709,0.0709,-0.0596,-0.0631,-0.0669,-0.0725,-0.0752,-0.0747,-0.0757,-0.0712,-0.0674,-0.0549,-0.044,-0.0226,0.0041,0.0547,0.0673,0.0762,0.0805,0.0859,0.0851,0.0844,0.0832,0.084,0.093,0.093,0.0931,0.0931,0.0932,0,-0.0627,-0.0663,-0.0717,-0.0774,-0.081,-0.0813,-0.0777,-0.0751,-0.0727,-0.0486,-0.0346,-0.0028,0.0353,0.0545,0.0712,0.0871,0.08,0.0857,0.0741,0.0737,0.0733,0.0709,0.0777,0.0777,0.0776,0.0776,0,0,-0.0643,-0.0697,-0.0726,-0.0804,-0.085,-0.0887,-0.0874,-0.0838,-0.0666,-0.0477,-0.025,0.0276,0.0488,0.0621,0.0731,0.0734,0.0692,0.0713,0.0833,0.068,0.0673,0.074,0.0702,0,0,0,0,0]}],[{"header":{"parameterUnit":"m.s-1","parameterCategory":2,"la1":30.2991,"la2":30.254,"lo1":-89.0895,"lo2":-89.0444,"dy":0.0017,"dx":0.0017,"nx":28,"ny":28,"refTime":"2025-06-01T21:00:00:Z","depth":"4","parameterNumber":2,"parameterNumberName":"U-component_of_CURRENTS"},"data":[0,0,0,0,0,0,0,0,0,0,0,0,0,0,0,0,0,0,0,0,0,0,0,0,0,0,0,0,0,0,0,0,0,0,0,0,0,0,0,0,0,0,0,0,0,0,0,0,0,0,0,0,0,0,0,0,0,0,-0.1181,-0.1182,0,-0.1277,-0.1278,-0.128,-0.1316,-0.1316,-0.1315,-0.1315,-0.1329,-0.1329,-0.133,0,0,0,0,0,0,0,0,0,0,0,0,0,-0.1115,-0.1116,-0.1181,-0.1182,-0.1184,-0.1277,-0.1278,-0.128,-0.1316,-0.1316,-0.1315,-0.1315,-0.1329,-0.1329,-0.133,0,0,0,0,0,0,0,0,0,0,0,0,0,-0.1171,-0.1116,-0.1181,-0.1212,-0.1216,-0.1277,-0.1278,-0.128,-0.1316,-0.1316,-0.1315,-0.1315,-0.1328,-0.1329,-0.133,-0.1348,0,0,-0.1334,-0.1334,0,0,0,0,0,0,0,0,-0.1168,-0.1174,-0.1207,-0.121,-0.1215,-0.1283,-0.126,-0.1298,-0.1316,-0.1279,-0.1315,-0.1314,-0.1306,-0.1309,-0.133,-0.1348,-0.1349,-0.1334,-0.1334,-0.1335,-0.1335,0,0,0,0,0,0,0,-0.1164,-0.117,-0.122,-0.1208,-0.1213,-0.1251,-0.1257,-0.1268,-0.1293,-0.1282,-0.1285,-0.1294,-0.1307,-0.1329,-0.1331,-0.1349,-0.1334,-0.1335,-0.1335,-0.1336,-0.1386,-0.1386,0,0,0,0,0,0,-0.1147,-0.1166,-0.1217,-0.1223,-0.1188,-0.1252,-0.126,-0.1262,-0.1295,-0.13,-0.1295,-0.1296,-0.1328,-0.1329,-0.1331,-0.1363,-0.1335,-0.1336,-0.1336,-0.1385,-0.1386,-0.1387,0,0,0,0,0,0,-0.1145,-0.115,-0.1213,-0.1197,-0.1207,-0.1253,-0.1257,-0.1265,-0.13,-0.1305,-0.1309,-0.1323,-0.1327,-0.133,-0.1355,-0.1363,-0.1336,-0.1337,-0.1384,-0.1385,-0.1386,-0.1419,0,0,0,0,0,0,-0.1142,-0.1148,-0.1156,-0.1195,-0.1207,-0.1253,-0.1257,-0.1267,-0.1306,-0.1308,-0.1331,-0.1331,-0.1327,-0.1354,-0.1356,-0.1363,-0.1338,-0.1383,-0.1385,-0.1386,-0.1417,-0.1421,-0.1424,0,0,0,0,0,-0.1139,-0.1147,-0.1155,-0.1162,-0.1212,-0.1254,-0.1264,-0.1296,-0.1308,-0.1326,-0.1344,-0.1331,-0.1363,-0.1356,-0.1358,-0.1366,-0.1383,-0.1384,-0.1386,-0.1415,-0.142,-0.1424,0,0,0,0,0,0,-0.1134,-0.1153,-0.1162,-0.1179,-0.1215,-0.1259,-0.1282,-0.1307,-0.1341,-0.1345,-0.1349,-0.1351,-0.1371,-0.1369,-0.1361,-0.1384,-0.1367,-0.1369,-0.1388,-0.1393,-0.1397,-0.1411,-0.1339,0,0,0,0,0,-0.1132,-0.1136,-0.1171,-0.1188,-0.1203,-0.1248,-0.1274,-0.1297,-0.1328,-0.1344,-0.1364,-0.1376,-0.138,-0.1388,-0.1394,-0.1416,-0.1411,-0.1419,-0.1423,-0.1426,-0.144,-0.1455,-0.1461,-0.1392,-0.1392,-0.1392,0,0,-0.1138,-0.1147,-0.1154,-0.1186,-0.1216,-0.1252,-0.1262,-0.1304,-0.1342,-0.1338,-0.1395,-0.1392,-0.1389,-0.1409,-0.1417,-0.1409,-0.1438,-0.1428,-0.1431,-0.1443,-0.1457,-0.1464,-0.147,-0.1393,-0.1393,-0.1393,0,0,-0.1145,-0.1158,-0.1164,-0.1192,-0.1233,-0.1265,-0.1279,-0.1334,-0.1364,-0.1414,-0.1411,-0.1419,-0.1448,-0.1442,-0.144,-0.147,-0.1456,-0.1469,-0.1503,-0.1517,-0.1523,-0.1528,-0.1507,-0.151,-0.1472,-0.1473,-0.1473,0,-0.1156,-0.1163,-0.1178,-0.1197,-0.1228,-0.1271,-0.1305,-0.1346,-0.1407,-0.1433,-0.1433,-0.1472,-0.1462,-0.1476,-0.1483,-0.1478,-0.148,-0.1485,-0.1522,-0.1528,-0.1532,-0.151,-0.1513,-0.1474,-0.1474,-0.1474,-0.1474,0,-0.1164,-0.1182,-0.1192,-0.1225,-0.1265,-0.13,-0.1354,-0.1403,-0.1445,-0.1479,-0.1518,-0.1514,-0.1534,-0.1525,-0.1515,-0.154,-0.1526,-0.1523,-0.1511,-0.1542,-0.1515,-0.1517,-0.1477,-0.1476,-0.1476,-0.1475,0,0,-0.1154,-0.1189,-0.1194,-0.1221,-0.1283,-0.132,-0.1385,-0.1452,-0.1495,-0.1543,-0.1588,-0.1592,-0.1595,-0.1593,-0.1576,-0.1587,-0.1602,-0.1578,-0.1578,-0.1557,-0.1619,-0.1501,-0.1492,-0.1618,-0.1619,-0.162,-0.1578,0,-0.116,-0.1188,-0.1214,-0.1275,-0.1303,-0.1367,-0.1425,-0.1492,-0.1543,-0.1596,-0.1603,-0.1629,-0.1619,-0.1619,-0.1634,-0.1608,-0.1616,-0.1612,-0.1594,-0.1593,-0.1484,-0.1493,-0.1624,-0.158,-0.158,-0.1581,-0.1581,0,-0.1151,-0.1176,-0.122,-0.1298,-0.1319,-0.1371,-0.1472,-0.1528,-0.1602,-0.1637,-0.1673,-0.168,-0.1692,-0.168,-0.1678,-0.1683,-0.1663,-0.1644,-0.1642,-0.1527,-0.148,-0.1549,-0.1586,-0.1585,-0.1585,-0.1585,-0.1584,0,-0.1119,-0.1183,-0.1219,-0.1245,-0.1338,-0.1388,-0.1452,-0.154,-0.1583,-0.1658,-0.1677,-0.1715,-0.1707,-0.1722,-0.1686,-0.1692,-0.1675,-0.167,-0.1545,-0.1535,-0.1641,-0.1636,-0.1683,-0.1683,-0.1684,-0.1684,-0.1684,0,-0.1096,-0.1133,-0.1211,-0.1231,-0.13,-0.1377,-0.1453,-0.152,-0.1593,-0.1618,-0.1688,-0.1679,-0.1724,-0.1715,-0.1702,-0.1618,-0.1687,-0.155,-0.1522,-0.1651,-0.1648,-0.1641,-0.1637,-0.1682,-0.1682,-0.1683,-0.1683,0,-0.1046,-0.109,-0.1142,-0.1242,-0.1279,-0.1331,-0.1443,-0.1483,-0.1564,-0.1593,-0.161,-0.1652,-0.1622,-0.1647,-0.1634,-0.1596,-0.1554,-0.1513,-0.1629,-0.1609,-0.1399,-0.1397,-0.1361,-0.1357,-0.1353,-0.135,-0.1347,0,-0.1019,-0.1033,-0.1133,-0.1164,-0.1211,-0.1298,-0.1344,-0.1453,-0.1482,-0.1542,-0.1528,-0.1532,-0.1543,-0.1428,-0.1472,-0.1443,-0.1432,-0.1416,-0.143,-0.1392,-0.137,-0.1374,-0.1376,-0.1342,-0.1341,-0.134,-0.1339,0,-0.0969,-0.1005,-0.1044,-0.1105,-0.116,-0.1219,-0.1291,-0.1304,-0.1397,-0.1465,-0.1405,-0.1382,-0.1337,-0.1321,-0.1313,-0.1296,-0.1434,-0.1377,-0.1384,-0.1398,-0.1367,-0.135,-0.1357,-0.1326,-0.1328,-0.1329,-0.1329,0,-0.0931,-0.094,-0.0987,-0.1036,-0.1098,-0.1125,-0.1182,-0.1199,-0.1238,-0.1304,-0.1261,-0.1267,-0.1295,-0.124,-0.1227,-0.1208,-0.1191,-0.1178,-0.1196,-0.1211,-0.1185,-0.1126,-0.0983,0,0,0,0,0,-0.0886,-0.0878,-0.0915,-0.0961,-0.102,-0.1053,-0.1134,-0.1186,-0.126,-0.1179,-0.1225,-0.1173,-0.1125,-0.1128,-0.1074,-0.117,-0.1214,-0.1106,-0.1214,-0.1254,-0.1269,-0.1254,0,0,0,0,0,0,-0.0851,-0.0869,-0.0882,-0.0888,-0.0901,-0.0955,-0.1,-0.1052,-0.1024,-0.1088,-0.106,-0.11,-0.1068,-0.1121,-0.1041,-0.1047,-0.1095,-0.1118,-0.1116,-0.1245,-0.1259,-0.1271,-0.1261,0,0,0,0,0]},{"header":{"parameterUnit":"m.s-1","parameterCategory":2,"la1":30.2991,"la2":30.254,"lo1":-89.0895,"lo2":-89.0444,"dy":0.0017,"dx":0.0017,"nx":28,"ny":28,"refTime":"2025-06-01T21:00:00:Z","depth":"4","parameterNumber":3,"parameterNumberName":"V-component_of_CURRENTS"},"data":[0,0,0,0,0,0,0,0,0,0,0,0,0,0,0,0,0,0,0,0,0,0,0,0,0,0,0,0,0,0,0,0,0,0,0,0,0,0,0,0,0,0,0,0,0,0,0,0,0,0,0,0,0,0,0,0,0,0,-0.0022,-0.0022,0,-0.0013,-0.0013,-0.0013,0.0029,0.003,0.0031,0.0032,0.0067,0.0067,0.0067,0,0,0,0,0,0,0,0,0,0,0,0,0,-0.0028,-0.0028,-0.0022,-0.0022,-0.0022,-0.0013,-0.0013,-0.0013,0.0029,0.003,0.0032,0.0033,0.0067,0.0067,0.0067,0,0,0,0,0,0,0,0,0,0,0,0,0,-0.0023,-0.0028,-0.0022,0.0,0.0002,-0.0013,-0.0013,-0.0013,0.0029,0.003,0.0032,0.0033,0.0067,0.0067,0.0067,0.0037,0,0,0.0067,0.0067,0,0,0,0,0,0,0,0,-0.0023,-0.0023,-0.0003,-0.0001,0.0001,0.0009,-0.0002,0.0005,0.0028,0.0019,0.0032,0.0034,0.0049,0.005,0.0048,0.0039,0.004,0.0067,0.0067,0.0067,0.0067,0,0,0,0,0,0,0,-0.0024,-0.0023,-0.0018,-0.0003,-0.0001,0.0001,0.0004,-0.0001,0.0026,0.002,0.0023,0.0023,0.005,0.0048,0.0049,0.0041,0.0067,0.0067,0.0067,0.0067,-0.0008,-0.0009,0,0,0,0,0,0,-0.0025,-0.0023,-0.0019,-0.0018,-0.0008,0.0,0.0003,0.0005,0.0025,0.003,0.0022,0.0025,0.0047,0.0049,0.0051,0.0023,0.0067,0.0067,0.0067,-0.0006,-0.0008,-0.001,0,0,0,0,0,0,-0.0025,-0.0025,-0.0019,-0.002,-0.002,-0.0001,0.0,0.0004,0.0011,0.0027,0.0032,0.0026,0.0049,0.0051,0.0043,0.0025,0.0067,0.0067,-0.0003,-0.0006,-0.0009,-0.0037,0,0,0,0,0,0,-0.0025,-0.0025,-0.0026,-0.0021,-0.0019,-0.0032,-0.0001,0.0003,0.0009,0.0013,0.0032,0.0036,0.005,0.0043,0.0043,0.0025,0.0067,-0.0001,-0.0005,-0.0008,-0.0034,-0.0041,-0.0047,0,0,0,0,0,-0.0026,-0.0036,-0.0026,-0.0025,-0.0021,-0.0032,-0.0032,-0.0014,0.0007,0.0,0.0012,0.0036,0.0019,0.0041,0.0042,0.0024,0.0001,-0.0003,-0.0008,-0.0031,-0.0039,-0.0047,0,0,0,0,0,0,-0.0043,-0.0033,-0.0021,-0.0028,-0.003,-0.0025,-0.0031,-0.0017,-0.0013,-0.0005,0.0017,0.0021,0.0002,0.0009,0.0033,-0.0014,0.0011,0.0006,-0.0007,-0.0015,-0.0022,0.0009,0.0067,0,0,0,0,0,-0.0047,-0.0049,-0.0044,-0.005,-0.0052,-0.004,-0.0041,-0.0031,-0.0027,-0.0022,-0.001,-0.0008,-0.002,-0.0018,-0.0028,-0.0047,0.0015,-0.0063,-0.007,-0.0075,-0.0054,0.0024,0.0029,-0.0025,-0.0025,-0.0025,0,0,-0.0057,-0.0051,-0.0052,-0.0054,-0.0051,-0.0065,-0.0037,-0.0044,-0.005,-0.0022,-0.0028,-0.0031,-0.0034,-0.0057,-0.0065,-0.0047,-0.0032,-0.0081,-0.0085,-0.006,0.002,0.0027,0.0032,-0.0028,-0.0027,-0.0027,0,0,-0.0083,-0.0071,-0.0084,-0.0087,-0.0087,-0.0083,-0.0085,-0.0081,-0.0073,-0.0088,-0.0074,-0.0078,-0.0097,-0.0094,-0.0098,-0.0148,-0.0073,-0.0167,-0.0163,-0.0089,-0.0082,-0.0076,0.0008,0.0022,-0.0164,-0.0164,-0.0164,0,-0.0096,-0.0105,-0.0092,-0.0107,-0.011,-0.0092,-0.011,-0.0109,-0.0108,-0.0097,-0.0096,-0.0103,-0.0112,-0.0117,-0.0143,-0.0158,-0.0094,-0.0128,-0.0091,-0.0083,-0.0075,0.0008,0.0025,-0.0166,-0.0166,-0.0165,-0.0165,0,-0.0132,-0.0139,-0.0149,-0.0156,-0.0161,-0.0175,-0.0169,-0.017,-0.0158,-0.0145,-0.0144,-0.0148,-0.014,-0.0164,-0.017,-0.0141,-0.0106,-0.0107,-0.0057,-0.007,0.0017,0.0035,-0.0169,-0.0168,-0.0167,-0.0167,0,0,-0.0163,-0.0172,-0.0175,-0.0182,-0.0184,-0.0194,-0.0202,-0.0198,-0.018,-0.0181,-0.015,-0.0189,-0.0161,-0.0164,-0.0166,-0.0114,-0.0028,-0.0089,-0.0084,0.002,0.0162,0.0144,0.0162,-0.0008,-0.0005,-0.0003,0.0203,0,-0.0195,-0.0227,-0.022,-0.025,-0.0265,-0.0247,-0.0252,-0.024,-0.0217,-0.0184,-0.0163,-0.0148,-0.0169,-0.0159,-0.0112,-0.0055,0.0019,-0.0081,0.0138,0.0144,0.0152,0.0181,0.0006,0.0216,0.0221,0.0224,0.0226,0,-0.0231,-0.0245,-0.0279,-0.0282,-0.0286,-0.0301,-0.028,-0.0281,-0.0227,-0.0201,-0.0158,-0.0124,-0.0074,-0.008,0.0059,0.0003,0.0087,0.0144,0.0153,0.0166,0.0159,0.0231,0.026,0.0257,0.0254,0.0252,0.025,0,-0.0256,-0.0283,-0.0308,-0.0314,-0.032,-0.0325,-0.0325,-0.0287,-0.0264,-0.0196,-0.0143,-0.008,-0.0022,0.0074,0.0167,0.0133,0.0355,0.0322,0.04,0.0401,0.0372,0.0363,0.0466,0.0466,0.0466,0.0465,0.0464,0,-0.0287,-0.0308,-0.0325,-0.034,-0.0364,-0.0352,-0.035,-0.033,-0.0266,-0.02,-0.0148,-0.0057,0.0028,0.0153,0.0221,0.037,0.0407,0.0429,0.0459,0.035,0.0336,0.0386,0.0374,0.0473,0.0471,0.047,0.0468,0,-0.031,-0.0321,-0.0354,-0.0371,-0.038,-0.0398,-0.0382,-0.0361,-0.0292,-0.0192,-0.016,-0.0012,0.0153,0.0249,0.0429,0.0454,0.0579,0.0633,0.0536,0.0552,0.0567,0.0551,0.0742,0.0744,0.0745,0.0745,0.0746,0,-0.0325,-0.0343,-0.0384,-0.041,-0.0424,-0.0442,-0.0443,-0.0393,-0.0344,-0.0146,-0.0082,0.0108,0.0211,0.0467,0.0537,0.0688,0.0689,0.075,0.0627,0.0589,0.0599,0.0581,0.0563,0.0748,0.0748,0.0748,0.0748,0,-0.0348,-0.0363,-0.0388,-0.0446,-0.0468,-0.048,-0.0462,-0.0414,-0.0297,-0.0223,0.0026,0.0178,0.038,0.0509,0.0631,0.0725,0.0689,0.076,0.0757,0.0642,0.0598,0.0603,0.0584,0.0752,0.0751,0.0751,0.0751,0,-0.0361,-0.0386,-0.0424,-0.0472,-0.0507,-0.0495,-0.0482,-0.0375,-0.0301,-0.0064,0.0031,0.0259,0.0394,0.0539,0.0651,0.073,0.0724,0.0706,0.0705,0.0702,0.0589,0.0519,0.0706,0,0,0,0,0,-0.0369,-0.0396,-0.0446,-0.0491,-0.0527,-0.0544,-0.0481,-0.0441,-0.0298,-0.012,-0.0037,0.0163,0.0394,0.05,0.0579,0.0608,0.0686,0.0696,0.065,0.0772,0.0767,0.0634,0,0,0,0,0,0,-0.0374,-0.0416,-0.0445,-0.0499,-0.0536,-0.0555,-0.0513,-0.0415,-0.0305,-0.0139,-0.0015,0.0127,0.0329,0.0335,0.0561,0.0592,0.0562,0.0818,0.0818,0.0774,0.077,0.0767,0.0628,0,0,0,0,0]}]]